User: anonymous   Login
Location: Invercargill
(46.4000°S, 168.3500°E)
Time: 03:06:29
(UTC+12:00)
Language:

Altair - Orbit

View from above orbital plane
View from above orbital plane
View from above satellite
View from above satellite

Ground track
Ground track

The orbit data is extracted from the following two-line orbital elements,

1    50U 60009B   19196.69769574 -.00000096 +00000-0 -90973-4 0  9998
2    50 047.2323 089.5474 0113962 038.8949 321.9974 12.20109383628985
Epoch (UTC): 15 July 2019 16:44:40
Eccentricity: 0.0113962
inclination: 47.2323°
perigee height: 1501 km
apogee height: 1683 km
right ascension of ascending node: 89.5474°
argument of perigee: 38.8949°
revolutions per day: 12.20109383
mean anomaly at epoch: 321.9974°
orbit number at epoch: 62898

The dashed part of the orbit path shows where the satellite is in the earth's shadow,  

DLR